This is the latest recevied weather packets stored in our database for station/object VK1KCM-5. If no packets are shown the sender has not sent any weather packets the latest 10 day(s).
| Time | Temp. | Humidity | Pressure | Rain* | Wind** | Luminosity | Snow |
|---|---|---|---|---|---|---|---|
| 1787705448 | 15° C | 74% | 1019.2 hPa | 0 mm | - | - | - |
| 1787705173 | 15° C | 70% | 1019 hPa | 0 mm | - | - | - |
| 1787704883 | 14.44° C | 72% | 1019.2 hPa | 0 mm | - | - | - |
| 1787704633 | 14.44° C | 72% | 1019.3 hPa | 0 mm | - | - | - |
| 1787704333 | 13.89° C | 74% | 1019.5 hPa | 0 mm | - | - | - |
| 1787704078 | 13.33° C | 76% | 1019.4 hPa | 0 mm | - | - | - |
| 1787703818 | 13.33° C | 76% | 1019.5 hPa | 0 mm | - | - | - |
| 1787703553 | 13.33° C | 77% | 1019.5 hPa | 0 mm | - | - | - |
| 1787703261 | 13.89° C | 76% | 1019.3 hPa | 0 mm | - | - | - |
| 1787702992 | 13.89° C | 76% | 1019.3 hPa | 0 mm | - | - | - |
| 1787702713 | 13.89° C | 75% | 1019.2 hPa | 0 mm | - | - | - |
| 1787702413 | 13.89° C | 76% | 1019.5 hPa | 0 mm | - | - | - |
| 1787702117 | 14.44° C | 76% | 1019.2 hPa | 0 mm | - | - | - |
| 1787701863 | 14.44° C | 76% | 1019.2 hPa | 0 mm | - | - | - |
| 1787701568 | 13.89° C | 77% | 1019.3 hPa | 0 mm | - | - | - |
| 1787701298 | 13.89° C | 77% | 1019.4 hPa | 0 mm | - | - | - |
| 1787701033 | 13.89° C | 78% | 1019.4 hPa | 0 mm | - | - | - |
| 1787700738 | 13.33° C | 82% | 1019.3 hPa | 0 mm | - | - | - |
| 1787700478 | 12.78° C | 87% | 1019.5 hPa | 0 mm | - | - | - |
| 1787700208 | 12.22° C | 95% | 1019.6 hPa | 0 mm | - | - | - |
| 1787699923 | 12.22° C | 99% | 1019.7 hPa | 0 mm | - | - | - |
| 1787699633 | 11.11° C | 99% | 1019.7 hPa | 0 mm | - | - | - |
| 1787699353 | 11.11° C | 99% | 1019.7 hPa | 0 mm | - | - | - |
| 1787699088 | 10.56° C | 99% | 1020 hPa | 0 mm | - | - | - |
| 1787698803 | 10.56° C | 99% | 1020.1 hPa | 0 mm | - | - | - |
* Rain latest hour (hover to see other rain measurements)
** Current wind speed in m/s (hover to see current wind gust speed)